User: anonymous   Login
Location: Unspecified
(0.0000°N, 0.0000°E)
Time: 10:25:22
(UTC+02:00)
Language:

CZ-2C R/B - Orbit

View from above orbital plane
View from above orbital plane
View from above satellite
View from above satellite

Ground track
Ground track

The orbit data is extracted from the following two-line orbital elements,

1 28480U 04046B   16238.78076721 -.00000009  00000-0  12143-4 0  9999
2 28480  98.1883 348.1078 0142383  16.8791 135.4179 14.25604018612140
Epoch (UTC): 25 August 2016 18:44:18
Eccentricity: 0.0142383
inclination: 98.1883°
perigee height: 704 km
apogee height: 909 km
right ascension of ascending node: 348.1078°
argument of perigee: 16.8791°
revolutions per day: 14.25604018
mean anomaly at epoch: 135.4179°
orbit number at epoch: 61214

The dashed part of the orbit path shows where the satellite is in the earth's shadow,  

DLR